Reidsville, NC

9:07 PM EDT on March 27, 2017 (GMT -0400)
Reidsville

Weather History for KSIF - January, 2013

Change the Weather History Date:

Monday, January 28, 2013

  Actual Average (KGSO) Record (KGSO)
Temperature  
Mean Temperature 41 °F -  
Max Temperature 49 °F 49 °F 78 °F (1944)
Min Temperature 33 °F 27 °F -2 °F (1940)
Degree Days  
Heating Degree Days 24    
Moisture  
Dew Point 36 °F    
Average Humidity 80    
Maximum Humidity 93    
Minimum Humidity 58    
Precipitation  
Precipitation 0.00 in - - ()
Sea Level Pressure  
Sea Level Pressure 30.34 in    
Wind  
Wind Speed 3 mph (SW)    
Max Wind Speed 14 mph    
Max Gust Speed 17 mph    
Visibility 8 miles    
Events Rain    
Averages and records for this station are not official NWS values.
T = Trace of Precipitation, MM = Missing Value Source: NWS Daily Summary

Daily Weather History Graph

Daily Weather History Graph

Search for Another Location

Airport or City:

Trip Planner

Search our weather history database for the weather conditions in past years. The results will help you decide how hot, cold, wet, or windy it might be!

Date:

Astronomy

Jan. 28, 2013 Rise Set
Actual Time 7:23 AM EST 5:41 PM EST
Civil Twilight 6:56 AM EST 6:08 PM EST
Nautical Twilight 6:25 AM EST 6:39 PM EST
Astronomical Twilight 5:54 AM EST 7:10 PM EST
Moon 7:29 PM EST 7:52 AM EST
Length of Visible Light 11h 12m
Length of Day
10h 17m
Full, 98% of the Moon is Illuminated
Jan 28
Full
Feb 3
Last Quarter
Feb 10
New
Feb 17
First Quarter
Feb 25
Full

Hourly Weather History & Observations

Time (EST) Temp. Windchill Dew Point Humidity Pressure Visibility Wind Dir Wind Speed Gust Speed Precip Events Conditions
12:15 AM 33.4 °F - 29.1 °F 84% 30.46 in 10.0 mi Calm Calm - N/A   Overcast
12:35 AM 34.7 °F - 28.0 °F 77% 30.46 in 10.0 mi Calm Calm - N/A   Overcast
12:55 AM 34.9 °F - 27.9 °F 76% 30.46 in 10.0 mi Calm Calm - N/A   Overcast
1:15 AM 34.9 °F - 28.0 °F 76% 30.45 in 10.0 mi Calm Calm - N/A Rain Light Rain
1:35 AM 34.5 °F - 28.9 °F 80% 30.45 in 7.0 mi Calm Calm - N/A Rain Light Rain
1:55 AM 34.3 °F - 29.5 °F 82% 30.45 in 10.0 mi Calm Calm - N/A   Light Drizzle
2:15 AM 34.3 °F - 29.8 °F 84% 30.45 in 10.0 mi Calm Calm - N/A   Light Drizzle
2:35 AM 34.5 °F - 30.2 °F 84% 30.45 in 7.0 mi Calm Calm - N/A Rain Light Rain
2:55 AM 34.3 °F 30.2 °F 30.7 °F 87% 30.45 in 7.0 mi South 4.6 mph - N/A   Light Drizzle
3:15 AM 34.2 °F 31.2 °F 31.1 °F 89% 30.44 in 7.0 mi South 3.5 mph - N/A Rain Light Rain
3:35 AM 34.0 °F - 31.5 °F 90% 30.44 in 7.0 mi Calm Calm - N/A Rain Light Rain
3:55 AM 34.0 °F - 31.8 °F 92% 30.42 in 7.0 mi Calm Calm - N/A   Overcast
4:15 AM 34.0 °F - 31.3 °F 90% 30.42 in 7.0 mi Calm Calm - N/A   Light Drizzle
4:35 AM 34.2 °F 31.2 °F 31.1 °F 89% 30.42 in 5.0 mi SSW 3.5 mph - N/A Rain Rain
4:55 AM 33.8 °F - 32.0 °F 93% 30.42 in 5.0 mi Calm Calm - N/A Rain Light Rain
5:15 AM 33.8 °F - 32.0 °F 93% 30.42 in 5.0 mi Calm Calm - N/A Rain Rain
5:35 AM 34.0 °F 31.0 °F 32.0 °F 92% 30.41 in 7.0 mi South 3.5 mph - N/A   Overcast
5:55 AM 34.2 °F 30.0 °F 32.0 °F 92% 30.42 in 5.0 mi SSW 4.6 mph - N/A   Overcast
6:15 AM 34.3 °F 31.4 °F 32.0 °F 91% 30.42 in 5.0 mi South 3.5 mph - N/A Rain Light Rain
6:35 AM 34.3 °F 31.4 °F 32.2 °F 92% 30.43 in 5.0 mi SW 3.5 mph - N/A Rain Light Rain
6:55 AM 34.5 °F 31.6 °F 32.2 °F 91% 30.42 in 5.0 mi SSW 3.5 mph - N/A   Light Drizzle
7:35 AM 34.7 °F 31.8 °F 32.4 °F 91% 30.43 in 5.0 mi SW 3.5 mph - N/A   Overcast
7:55 AM 34.7 °F 31.8 °F 32.5 °F 92% 30.43 in 4.0 mi SW 3.5 mph - N/A   Overcast
8:15 AM 34.9 °F 32.0 °F 32.9 °F 92% 30.44 in 3.0 mi WSW 3.5 mph - N/A   Mostly Cloudy
8:35 AM 35.4 °F 31.5 °F 32.5 °F 89% 30.43 in 4.0 mi SW 4.6 mph - N/A   Overcast
8:55 AM 36.0 °F 31.1 °F 32.5 °F 87% 30.42 in 4.0 mi SW 5.8 mph - N/A   Mostly Cloudy
9:15 AM 37.8 °F 31.8 °F 33.8 °F 86% 30.43 in 4.0 mi WSW 8.1 mph - N/A   Scattered Clouds
9:35 AM 37.6 °F 31.6 °F 32.7 °F 83% 30.41 in 5.0 mi SW 8.1 mph - N/A   Haze
9:55 AM 37.9 °F 32.7 °F 32.5 °F 81% 30.41 in 5.0 mi SW 6.9 mph - N/A   Haze
10:15 AM 40.1 °F 35.3 °F 33.4 °F 77% 30.40 in 7.0 mi SW 6.9 mph - N/A   Clear
10:35 AM 42.3 °F 36.3 °F 33.8 °F 72% 30.40 in 7.0 mi SW 10.4 mph - N/A   Clear
10:55 AM 43.7 °F 39.7 °F 33.4 °F 67% 30.39 in 7.0 mi SW 6.9 mph - N/A   Clear
11:15 AM 45.5 °F 41.3 °F 33.4 °F 63% 30.39 in 10.0 mi WSW 8.1 mph - N/A   Clear
11:35 AM 46.4 °F 42.4 °F 32.9 °F 59% 30.37 in 10.0 mi WSW 8.1 mph - N/A   Clear
11:55 AM 47.5 °F - 33.4 °F 58% 30.36 in 10.0 mi SSW 13.8 mph 17.3 mph N/A   Clear
12:15 PM 48.7 °F - 34.9 °F 59% 30.34 in 10.0 mi SSW 9.2 mph - N/A   Scattered Clouds
12:35 PM 48.2 °F - 35.4 °F 61% 30.33 in 10.0 mi SW 10.4 mph - N/A   Mostly Cloudy
12:55 PM 48.2 °F - 36.0 °F 63% 30.31 in 10.0 mi SW 6.9 mph - N/A   Overcast
1:15 PM 48.2 °F - 36.0 °F 63% 30.30 in 10.0 mi SW 8.1 mph 17.3 mph N/A   Overcast
1:35 PM 48.0 °F - 36.1 °F 63% 30.29 in 10.0 mi SSW 8.1 mph - N/A   Overcast
1:55 PM 48.0 °F - 36.7 °F 65% 30.28 in 10.0 mi SW 6.9 mph - N/A   Overcast
2:15 PM 48.2 °F - 37.6 °F 67% 30.27 in 10.0 mi SW 8.1 mph - N/A   Overcast
2:35 PM 48.2 °F - 38.3 °F 69% 30.27 in 10.0 mi SW 6.9 mph - N/A   Overcast
2:55 PM 48.7 °F - 39.0 °F 69% 30.26 in 10.0 mi SW 5.8 mph - N/A   Overcast
3:15 PM 49.3 °F - 39.2 °F 68% 30.26 in 10.0 mi WSW 5.8 mph - N/A   Overcast
3:35 PM 49.3 °F - 39.4 °F 69% 30.26 in 10.0 mi SW 8.1 mph - N/A   Overcast
3:55 PM 49.1 °F - 39.6 °F 70% 30.25 in 10.0 mi SW 6.9 mph - N/A   Overcast
4:15 PM 48.7 °F - 40.3 °F 73% 30.24 in 7.0 mi SW 5.8 mph - N/A   Overcast
4:35 PM 48.7 °F - 40.6 °F 74% 30.24 in 7.0 mi WSW 8.1 mph - N/A   Overcast
4:55 PM 48.6 °F - 40.6 °F 74% 30.25 in 10.0 mi SW 4.6 mph - N/A   Overcast
5:15 PM 48.4 °F - 40.6 °F 75% 30.24 in 10.0 mi SW 5.8 mph - N/A   Overcast
5:35 PM 47.8 °F - 40.5 °F 76% 30.25 in 10.0 mi SW 5.8 mph - N/A   Overcast
5:55 PM 47.5 °F - 41.0 °F 78% 30.25 in 10.0 mi SW 8.1 mph - N/A   Scattered Clouds
6:15 PM 47.3 °F - 41.2 °F 79% 30.25 in 10.0 mi SW 5.8 mph - N/A   Clear
6:35 PM 46.6 °F - 41.2 °F 81% 30.25 in 10.0 mi SW 5.8 mph - N/A   Scattered Clouds
6:55 PM 46.4 °F 45.2 °F 41.0 °F 81% 30.25 in 10.0 mi SW 3.5 mph - N/A   Clear
7:15 PM 46.4 °F 44.3 °F 40.6 °F 80% 30.25 in 10.0 mi SW 4.6 mph - N/A   Clear
7:35 PM 45.9 °F 44.6 °F 40.3 °F 81% 30.25 in 10.0 mi SW 3.5 mph - N/A   Scattered Clouds
7:55 PM 45.7 °F 43.4 °F 40.5 °F 82% 30.24 in 10.0 mi SW 4.6 mph - N/A   Scattered Clouds
8:15 PM 45.9 °F 43.6 °F 40.6 °F 82% 30.24 in 10.0 mi SW 4.6 mph - N/A   Clear
8:35 PM 45.7 °F 43.4 °F 40.6 °F 83% 30.22 in 10.0 mi SSW 4.6 mph - N/A   Clear
8:55 PM 45.1 °F 42.8 °F 40.5 °F 84% 30.22 in 10.0 mi SW 4.6 mph - N/A   Scattered Clouds
9:15 PM 45.0 °F 41.8 °F 40.5 °F 84% 30.21 in 7.0 mi SW 5.8 mph - N/A   Scattered Clouds
9:35 PM 44.6 °F 42.2 °F 40.3 °F 85% 30.22 in 7.0 mi SW 4.6 mph - N/A   Scattered Clouds
9:55 PM 44.1 °F 42.5 °F 40.1 °F 86% 30.22 in 7.0 mi WSW 3.5 mph - N/A   Scattered Clouds
10:15 PM 43.7 °F - 40.3 °F 88% 30.22 in 7.0 mi Calm Calm - N/A   Scattered Clouds
10:35 PM 43.7 °F 42.1 °F 40.5 °F 88% 30.21 in 7.0 mi SW 3.5 mph - N/A   Clear
10:55 PM 43.7 °F 42.1 °F 40.5 °F 88% 30.21 in 7.0 mi WSW 3.5 mph - N/A   Clear
11:15 PM 43.2 °F 41.5 °F 40.6 °F 91% 30.22 in 7.0 mi SW 3.5 mph - N/A   Clear
11:35 PM 43.3 °F 40.7 °F 41.0 °F 91% 30.21 in 7.0 mi SW 4.6 mph - N/A   Clear
11:55 PM 43.2 °F 40.5 °F 41.0 °F 92% 30.21 in 7.0 mi WSW 4.6 mph - N/A   Scattered Clouds